Time,TemperatureF,DewpointF,PressureIn,WindDirection,WindDirectionDegrees,WindSpeedMPH,WindSpeedGustMPH,Humidity,HourlyPrecipIn,Conditions,Clouds,dailyrainin,SoftwareType,DateUTC
2013-01-24 00:03:00,46.1,24.9,29.83,SSW,207,11.0,27.0,43,0.00,,---,0.00,VWS V13.00,2013-01-24 07:03:00,
2013-01-24 00:08:00,45.6,25.0,29.83,SW,225,11.0,27.0,44,0.00,,---,0.00,VWS V13.00,2013-01-24 07:08:00,
2013-01-24 00:13:00,45.7,25.0,29.83,WSW,240,19.0,22.0,44,0.00,,---,0.00,VWS V13.00,2013-01-24 07:13:00,
2013-01-24 00:18:00,46.0,24.8,29.83,WSW,248,21.0,22.0,43,0.00,,---,0.00,VWS V13.00,2013-01-24 07:18:00,
2013-01-24 00:23:00,46.3,24.5,29.83,WSW,250,18.0,24.0,42,0.00,,---,0.00,VWS V13.00,2013-01-24 07:23:00,
2013-01-24 00:28:00,46.2,24.4,29.83,WSW,237,23.0,24.0,42,0.00,,---,0.00,VWS V13.00,2013-01-24 07:28:00,
2013-01-24 00:33:00,45.9,24.1,29.83,WSW,242,20.0,24.0,42,0.00,,---,0.00,VWS V13.00,2013-01-24 07:33:00,
2013-01-24 00:38:00,45.6,23.9,29.83,WSW,242,13.0,24.0,42,0.00,,---,0.00,VWS V13.00,2013-01-24 07:38:00,
2013-01-24 00:43:00,45.3,24.1,29.83,WSW,250,14.0,20.0,43,0.00,,---,0.00,VWS V13.00,2013-01-24 07:43:00,
2013-01-24 00:48:00,45.0,23.3,29.83,WSW,238,16.0,25.0,42,0.00,,---,0.00,VWS V13.00,2013-01-24 07:48:00,
2013-01-24 00:53:00,45.0,23.3,29.83,WSW,238,15.0,25.0,42,0.00,,---,0.00,VWS V13.00,2013-01-24 07:53:00,
2013-01-24 00:58:00,45.0,24.4,29.84,WSW,238,15.0,25.0,44,0.00,,---,0.00,VWS V13.00,2013-01-24 07:58:00,
2013-01-24 01:03:00,44.7,23.6,29.84,SW,229,10.0,25.0,43,0.00,,---,0.00,VWS V13.00,2013-01-24 08:03:00,
2013-01-24 01:08:00,44.3,24.3,29.84,WSW,237,10.0,25.0,45,0.00,,---,0.00,VWS V13.00,2013-01-24 08:08:00,
2013-01-24 01:13:00,44.0,24.0,29.84,WSW,249,16.0,19.0,45,0.00,,---,0.00,VWS V13.00,2013-01-24 08:13:00,
2013-01-24 01:18:00,43.8,23.9,29.84,SW,214,17.0,23.0,45,0.00,,---,0.00,VWS V13.00,2013-01-24 08:18:00,
2013-01-24 01:23:00,43.6,24.2,29.84,WSW,238,10.0,23.0,46,0.00,,---,0.00,VWS V13.00,2013-01-24 08:23:00,
2013-01-24 01:28:00,43.2,24.4,29.84,SW,225,9.0,23.0,47,0.00,,---,0.00,VWS V13.00,2013-01-24 08:28:00,
2013-01-24 01:33:00,42.9,24.6,29.84,SW,227,15.0,23.0,48,0.00,,---,0.00,VWS V13.00,2013-01-24 08:33:00,
2013-01-24 01:38:00,42.8,23.5,29.84,WSW,238,12.0,23.0,46,0.00,,---,0.00,VWS V13.00,2013-01-24 08:38:00,
2013-01-24 01:43:00,43.2,23.3,29.84,WSW,241,13.0,19.0,45,0.00,,---,0.00,VWS V13.00,2013-01-24 08:43:00,
2013-01-24 01:48:00,43.7,23.8,29.84,WSW,247,17.0,19.0,45,0.00,,---,0.00,VWS V13.00,2013-01-24 08:48:00,
2013-01-24 01:53:00,44.1,23.0,29.84,WSW,242,14.0,19.0,43,0.00,,---,0.00,VWS V13.00,2013-01-24 08:53:00,
2013-01-24 01:58:00,44.6,22.9,29.83,WSW,237,16.0,19.0,42,0.00,,---,0.00,VWS V13.00,2013-01-24 08:58:00,
2013-01-24 02:03:00,45.0,22.7,29.83,WSW,240,13.0,21.0,41,0.00,,---,0.00,VWS V13.00,2013-01-24 09:03:00,
2013-01-24 02:08:00,45.1,23.4,29.83,SW,225,19.0,21.0,42,0.00,,---,0.00,VWS V13.00,2013-01-24 09:08:00,
2013-01-24 02:13:00,45.2,22.3,29.82,WSW,238,15.0,20.0,40,0.00,,---,0.00,VWS V13.00,2013-01-24 09:13:00,
2013-01-24 02:18:00,45.4,22.5,29.82,WSW,241,15.0,23.0,40,0.00,,---,0.00,VWS V13.00,2013-01-24 09:18:00,
2013-01-24 02:23:00,46.0,21.8,29.82,SW,234,18.0,25.0,38,0.00,,---,0.00,VWS V13.00,2013-01-24 09:23:00,
2013-01-24 02:28:00,46.4,22.8,29.81,SW,229,17.0,25.0,39,0.00,,---,0.00,VWS V13.00,2013-01-24 09:28:00,
2013-01-24 02:33:00,46.4,22.2,29.81,WSW,244,23.0,25.0,38,0.00,,---,0.00,VWS V13.00,2013-01-24 09:33:00,
2013-01-24 02:38:00,47.0,22.1,29.81,WSW,249,23.0,28.0,37,0.00,,---,0.00,VWS V13.00,2013-01-24 09:38:00,
2013-01-24 02:43:00,47.2,22.9,29.81,WSW,239,21.0,26.0,38,0.00,,---,0.00,VWS V13.00,2013-01-24 09:43:00,
2013-01-24 02:48:00,46.6,23.0,29.81,SW,233,18.0,26.0,39,0.00,,---,0.00,VWS V13.00,2013-01-24 09:48:00,
2013-01-24 02:53:00,46.1,23.7,29.81,WSW,240,17.0,26.0,41,0.00,,---,0.00,VWS V13.00,2013-01-24 09:53:00,
2013-01-24 02:58:00,45.4,23.7,29.80,SW,234,18.0,26.0,42,0.00,,---,0.00,VWS V13.00,2013-01-24 09:58:00,
2013-01-24 03:03:00,45.0,23.9,29.80,WSW,244,17.0,26.0,43,0.00,,---,0.00,VWS V13.00,2013-01-24 10:03:00,
2013-01-24 03:08:00,44.6,24.6,29.80,SW,230,19.0,26.0,45,0.00,,---,0.00,VWS V13.00,2013-01-24 10:08:00,
2013-01-24 03:13:00,44.4,23.9,29.81,SW,229,19.0,22.0,44,0.00,,---,0.00,VWS V13.00,2013-01-24 10:13:00,
2013-01-24 03:18:00,44.3,23.8,29.81,SW,232,18.0,24.0,44,0.00,,---,0.00,VWS V13.00,2013-01-24 10:18:00,
2013-01-24 03:23:00,44.7,23.6,29.81,WSW,238,19.0,24.0,43,0.00,,---,0.00,VWS V13.00,2013-01-24 10:23:00,
2013-01-24 03:28:00,45.0,23.9,29.81,WSW,244,18.0,27.0,43,0.00,,---,0.00,VWS V13.00,2013-01-24 10:28:00,
2013-01-24 03:33:00,45.2,22.9,29.81,SW,233,23.0,27.0,41,0.00,,---,0.00,VWS V13.00,2013-01-24 10:33:00,
2013-01-24 03:38:00,45.7,22.8,29.81,WSW,238,24.0,27.0,40,0.00,,---,0.00,VWS V13.00,2013-01-24 10:38:00,
2013-01-24 03:43:00,45.9,23.0,29.81,SW,234,22.0,27.0,40,0.00,,---,0.00,VWS V13.00,2013-01-24 10:43:00,
2013-01-24 03:48:00,46.0,23.0,29.81,WSW,241,18.0,27.0,40,0.00,,---,0.00,VWS V13.00,2013-01-24 10:48:00,
2013-01-24 03:53:00,46.1,22.5,29.81,WSW,246,19.0,27.0,39,0.00,,---,0.00,VWS V13.00,2013-01-24 10:53:00,
2013-01-24 03:58:00,46.3,22.7,29.81,WSW,250,21.0,29.0,39,0.00,,---,0.00,VWS V13.00,2013-01-24 10:58:00,
2013-01-24 04:03:00,46.3,22.7,29.81,WSW,238,30.0,33.0,39,0.00,,---,0.00,VWS V13.00,2013-01-24 11:03:00,
2013-01-24 04:08:00,46.5,23.5,29.81,SW,236,24.0,33.0,40,0.00,,---,0.00,VWS V13.00,2013-01-24 11:08:00,
2013-01-24 04:13:00,46.2,23.8,29.79,WSW,246,24.0,31.0,41,0.00,,---,0.00,VWS V13.00,2013-01-24 11:13:00,
2013-01-24 04:18:00,45.9,24.1,29.79,WSW,252,21.0,31.0,42,0.00,,---,0.00,VWS V13.00,2013-01-24 11:18:00,
2013-01-24 04:23:00,45.6,23.9,29.79,WSW,240,24.0,31.0,42,0.00,,---,0.00,VWS V13.00,2013-01-24 11:23:00,
2013-01-24 04:28:00,45.5,24.3,29.80,WSW,250,21.0,31.0,43,0.00,,---,0.00,VWS V13.00,2013-01-24 11:28:00,
2013-01-24 04:33:00,45.3,24.7,29.80,WSW,248,20.0,31.0,44,0.00,,---,0.00,VWS V13.00,2013-01-24 11:33:00,
2013-01-24 04:38:00,44.9,25.4,29.80,WSW,252,18.0,31.0,46,0.00,,---,0.00,VWS V13.00,2013-01-24 11:38:00,
2013-01-24 04:43:00,44.4,25.5,29.81,WSW,246,19.0,25.0,47,0.00,,---,0.00,VWS V13.00,2013-01-24 11:43:00,
2013-01-24 04:48:00,44.3,25.4,29.81,WSW,248,15.0,26.0,47,0.00,,---,0.00,VWS V13.00,2013-01-24 11:48:00,
2013-01-24 04:53:00,44.2,25.3,29.81,WSW,243,16.0,26.0,47,0.00,,---,0.00,VWS V13.00,2013-01-24 11:53:00,
2013-01-24 04:58:00,44.2,25.8,29.81,WSW,254,12.0,26.0,48,0.00,,---,0.00,VWS V13.00,2013-01-24 11:58:00,
2013-01-24 05:03:00,43.8,25.9,29.81,SW,229,18.0,26.0,49,0.00,,---,0.00,VWS V13.00,2013-01-24 12:03:00,
2013-01-24 05:08:00,43.5,26.6,29.81,West,270,14.0,26.0,51,0.00,,---,0.00,VWS V13.00,2013-01-24 12:08:00,
2013-01-24 05:13:00,42.4,27.0,29.82,WNW,284,15.0,18.0,54,0.00,,---,0.00,VWS V13.00,2013-01-24 12:13:00,
2013-01-24 05:18:00,41.5,26.1,29.82,West,263,21.0,21.0,54,0.00,,---,0.00,VWS V13.00,2013-01-24 12:18:00,
2013-01-24 05:23:00,41.6,26.6,29.82,West,270,13.0,23.0,55,0.00,,---,0.00,VWS V13.00,2013-01-24 12:23:00,
2013-01-24 05:28:00,41.5,26.1,29.84,West,279,13.0,23.0,54,0.00,,---,0.00,VWS V13.00,2013-01-24 12:28:00,
2013-01-24 05:33:00,41.2,26.3,29.84,West,279,14.0,23.0,55,0.00,,---,0.00,VWS V13.00,2013-01-24 12:33:00,
2013-01-24 05:38:00,40.7,25.8,29.84,West,276,15.0,23.0,55,0.00,,---,0.00,VWS V13.00,2013-01-24 12:38:00,
2013-01-24 05:43:00,40.8,25.9,29.85,West,269,19.0,22.0,55,0.00,,---,0.00,VWS V13.00,2013-01-24 12:43:00,
2013-01-24 05:48:00,41.9,26.0,29.85,West,267,17.0,26.0,53,0.00,,---,0.00,VWS V13.00,2013-01-24 12:48:00,
2013-01-24 05:53:00,42.5,26.1,29.85,West,260,21.0,26.0,52,0.00,,---,0.00,VWS V13.00,2013-01-24 12:53:00,
2013-01-24 05:58:00,42.6,26.2,29.85,West,267,15.0,26.0,52,0.00,,---,0.00,VWS V13.00,2013-01-24 12:58:00,
2013-01-24 06:03:00,42.6,26.7,29.85,WSW,252,12.0,26.0,53,0.00,,---,0.00,VWS V13.00,2013-01-24 13:03:00,
2013-01-24 06:08:00,42.1,26.7,29.85,WSW,252,13.0,26.0,54,0.00,,---,0.00,VWS V13.00,2013-01-24 13:08:00,
2013-01-24 06:13:00,42.2,25.9,29.86,WSW,253,13.0,19.0,52,0.00,,---,0.00,VWS V13.00,2013-01-24 13:13:00,
2013-01-24 06:18:00,42.8,25.5,29.86,WSW,249,14.0,24.0,50,0.00,,---,0.00,VWS V13.00,2013-01-24 13:18:00,
2013-01-24 06:23:00,43.1,26.2,29.86,West,259,10.0,24.0,51,0.00,,---,0.00,VWS V13.00,2013-01-24 13:23:00,
2013-01-24 06:28:00,42.7,26.3,29.86,WSW,251,10.0,24.0,52,0.00,,---,0.00,VWS V13.00,2013-01-24 13:28:00,
2013-01-24 06:33:00,42.2,24.9,29.86,West,263,9.0,24.0,50,0.00,,---,0.00,VWS V13.00,2013-01-24 13:33:00,
2013-01-24 06:38:00,42.1,25.8,29.86,West,261,8.0,24.0,52,0.00,,---,0.00,VWS V13.00,2013-01-24 13:38:00,
2013-01-24 06:43:00,41.9,25.1,29.86,West,268,15.0,18.0,51,0.00,,---,0.00,VWS V13.00,2013-01-24 13:43:00,
2013-01-24 06:48:00,42.1,25.8,29.86,West,269,9.0,18.0,52,0.00,,---,0.00,VWS V13.00,2013-01-24 13:48:00,
2013-01-24 06:53:00,41.7,26.3,29.86,West,275,10.0,18.0,54,0.00,,---,0.00,VWS V13.00,2013-01-24 13:53:00,
2013-01-24 06:58:00,41.4,26.0,29.86,WNW,286,18.0,25.0,54,0.00,,---,0.00,VWS V13.00,2013-01-24 13:58:00,
2013-01-24 07:03:00,42.0,26.6,29.86,West,270,22.0,25.0,54,0.00,,---,0.00,VWS V13.00,2013-01-24 14:03:00,
2013-01-24 07:08:00,42.4,27.0,29.86,West,271,23.0,27.0,54,0.00,,---,0.00,VWS V13.00,2013-01-24 14:08:00,
2013-01-24 07:13:00,42.4,26.5,29.84,West,273,19.0,23.0,53,0.00,,---,0.00,VWS V13.00,2013-01-24 14:13:00,
2013-01-24 07:18:00,42.2,26.8,29.84,West,267,18.0,23.0,54,0.00,,---,0.00,VWS V13.00,2013-01-24 14:18:00,
2013-01-24 07:23:00,42.1,26.2,29.84,West,281,21.0,24.0,53,0.00,,---,0.00,VWS V13.00,2013-01-24 14:23:00,
2013-01-24 07:28:00,41.9,26.5,29.85,West,277,22.0,24.0,54,0.00,,---,0.00,VWS V13.00,2013-01-24 14:28:00,
2013-01-24 07:33:00,41.9,26.5,29.85,WNW,283,21.0,25.0,54,0.00,,---,0.00,VWS V13.00,2013-01-24 14:33:00,
2013-01-24 07:38:00,41.8,26.4,29.85,WNW,286,20.0,25.0,54,0.00,,---,0.00,VWS V13.00,2013-01-24 14:38:00,
2013-01-24 07:43:00,41.9,26.5,29.86,West,275,20.0,24.0,54,0.00,,---,0.00,VWS V13.00,2013-01-24 14:43:00,
2013-01-24 07:48:00,42.0,26.6,29.86,West,269,19.0,27.0,54,0.00,,---,0.00,VWS V13.00,2013-01-24 14:48:00,
2013-01-24 07:53:00,42.1,26.7,29.86,West,273,22.0,29.0,54,0.00,,---,0.00,VWS V13.00,2013-01-24 14:53:00,
2013-01-24 07:58:00,42.1,27.1,29.85,West,268,19.0,29.0,55,0.00,,---,0.00,VWS V13.00,2013-01-24 14:58:00,
2013-01-24 08:03:00,42.2,26.8,29.85,WNW,289,20.0,29.0,54,0.00,,---,0.00,VWS V13.00,2013-01-24 15:03:00,
2013-01-24 08:08:00,42.2,27.2,29.85,West,269,19.0,29.0,55,0.00,,---,0.00,VWS V13.00,2013-01-24 15:08:00,
2013-01-24 08:13:00,41.7,27.2,29.86,West,272,21.0,23.0,56,0.00,,---,0.00,VWS V13.00,2013-01-24 15:13:00,
2013-01-24 08:18:00,41.3,27.2,29.86,West,273,21.0,23.0,57,0.00,,---,0.00,VWS V13.00,2013-01-24 15:18:00,
2013-01-24 08:23:00,41.0,27.4,29.86,West,270,16.0,23.0,58,0.00,,---,0.00,VWS V13.00,2013-01-24 15:23:00,
2013-01-24 08:28:00,40.7,27.1,29.86,West,274,20.0,25.0,58,0.00,,---,0.00,VWS V13.00,2013-01-24 15:28:00,
2013-01-24 08:33:00,41.1,27.0,29.86,West,271,24.0,26.0,57,0.00,,---,0.00,VWS V13.00,2013-01-24 15:33:00,
2013-01-24 08:38:00,41.5,27.0,29.86,West,264,19.0,26.0,56,0.00,,---,0.00,VWS V13.00,2013-01-24 15:38:00,
2013-01-24 08:43:00,41.7,26.7,29.88,West,272,24.0,27.0,55,0.00,,---,0.00,VWS V13.00,2013-01-24 15:43:00,
2013-01-24 08:48:00,42.3,26.9,29.88,West,268,20.0,28.0,54,0.00,,---,0.00,VWS V13.00,2013-01-24 15:48:00,
2013-01-24 08:53:00,42.2,27.6,29.88,West,273,15.0,28.0,56,0.00,,---,0.00,VWS V13.00,2013-01-24 15:53:00,
2013-01-24 08:58:00,41.6,27.5,29.87,WNW,294,11.0,28.0,57,0.00,,---,0.00,VWS V13.00,2013-01-24 15:58:00,
2013-01-24 09:03:00,41.2,27.1,29.87,WNW,299,14.0,28.0,57,0.00,,---,0.00,VWS V13.00,2013-01-24 16:03:00,
2013-01-24 09:08:00,41.0,27.0,29.87,WNW,295,14.0,28.0,57,0.00,,---,0.00,VWS V13.00,2013-01-24 16:08:00,
2013-01-24 09:13:00,40.8,27.6,29.88,WNW,300,12.0,14.0,59,0.00,,---,0.00,VWS V13.00,2013-01-24 16:13:00,
2013-01-24 09:18:00,40.3,27.5,29.88,NW,305,15.0,15.0,60,0.00,,---,0.00,VWS V13.00,2013-01-24 16:18:00,
2013-01-24 09:23:00,40.0,27.6,29.88,WNW,296,12.0,17.0,61,0.00,,---,0.00,VWS V13.00,2013-01-24 16:23:00,
2013-01-24 09:28:00,39.7,27.8,29.91,NW,304,17.0,19.0,62,0.00,,---,0.00,VWS V13.00,2013-01-24 16:28:00,
2013-01-24 09:33:00,39.8,28.2,29.91,NW,309,13.0,25.0,63,0.00,,---,0.00,VWS V13.00,2013-01-24 16:33:00,
2013-01-24 09:38:00,40.0,28.4,29.91,NW,306,15.0,25.0,63,0.00,,---,0.00,VWS V13.00,2013-01-24 16:38:00,
2013-01-24 09:43:00,40.3,28.3,29.92,WNW,303,19.0,25.0,62,0.00,,---,0.00,VWS V13.00,2013-01-24 16:43:00,
2013-01-24 09:48:00,40.6,28.2,29.92,NW,305,23.0,26.0,61,0.00,,---,0.00,VWS V13.00,2013-01-24 16:48:00,
2013-01-24 09:53:00,40.6,28.2,29.92,WNW,302,18.0,28.0,61,0.00,,---,0.00,VWS V13.00,2013-01-24 16:53:00,
2013-01-24 09:58:00,40.5,28.1,29.83,West,277,20.0,28.0,61,0.00,,---,0.00,VWS V13.00,2013-01-24 16:58:00,
2013-01-24 10:03:00,40.4,27.6,29.83,WNW,294,21.0,29.0,60,0.00,,---,0.00,VWS V13.00,2013-01-24 17:03:00,
2013-01-24 10:08:00,40.4,27.6,29.83,WNW,298,24.0,29.0,60,0.00,,---,0.00,VWS V13.00,2013-01-24 17:08:00,
2013-01-24 10:13:00,40.3,27.9,29.83,WNW,289,22.0,25.0,61,0.00,,---,0.00,VWS V13.00,2013-01-24 17:13:00,
2013-01-24 10:18:00,40.1,27.8,29.83,WNW,301,18.0,25.0,61,0.00,,---,0.00,VWS V13.00,2013-01-24 17:18:00,
2013-01-24 10:22:00,39.9,27.6,29.83,WNW,297,25.0,27.0,61,0.00,,---,0.00,VWS V13.00,2013-01-24 17:22:00,
2013-01-24 10:27:00,39.7,27.4,29.84,NW,306,19.0,27.0,61,0.00,,---,0.00,VWS V13.00,2013-01-24 17:27:00,
2013-01-24 10:32:00,39.8,27.5,29.84,WNW,300,23.0,27.0,61,0.00,,---,0.00,VWS V13.00,2013-01-24 17:32:00,
2013-01-24 10:37:00,39.6,27.3,29.84,NW,307,22.0,27.0,61,0.00,,---,0.00,VWS V13.00,2013-01-24 17:37:00,
2013-01-24 10:42:00,39.1,27.2,29.85,NW,311,22.0,26.0,62,0.00,,---,0.00,VWS V13.00,2013-01-24 17:42:00,
2013-01-24 10:47:00,39.1,27.6,29.85,WNW,302,24.0,26.0,63,0.00,,---,0.00,VWS V13.00,2013-01-24 17:47:00,
2013-01-24 10:52:00,39.3,27.4,29.85,WNW,295,27.0,30.0,62,0.00,,---,0.00,VWS V13.00,2013-01-24 17:52:00,
2013-01-24 10:57:00,39.8,27.5,29.86,WNW,300,28.0,32.0,61,0.00,,---,0.00,VWS V13.00,2013-01-24 17:57:00,
2013-01-24 11:02:00,40.0,27.6,29.86,WNW,300,25.0,33.0,61,0.00,,---,0.00,VWS V13.00,2013-01-24 18:02:00,
2013-01-24 11:08:00,39.8,27.5,29.86,NW,305,23.0,33.0,61,0.00,,---,0.00,VWS V13.00,2013-01-24 18:08:00,
2013-01-24 11:12:00,40.2,27.4,29.88,WNW,302,24.0,31.0,60,0.00,,---,0.00,VWS V13.00,2013-01-24 18:12:00,
2013-01-24 11:17:00,40.8,27.6,29.88,NW,308,25.0,31.0,59,0.00,,---,0.00,VWS V13.00,2013-01-24 18:17:00,